Location: Fxbg
(38.3018°N, 77.4708°W)
Time: 19:03:26
(UTC-04:00)

ISS - Visible Passes

Search period start: 20 October 2018 00:00
Search period end: 30 October 2018 00:00
Orbit: 403 x 408 km, 51.6° (Epoch: 21 October)

Date Brightness Start Highest point End Pass type
(mag) Time Alt. Az. Time Alt. Az. Time Alt. Az.
25 Oct -1.4 06:31:11 10° S 06:33:51 23° SE 06:36:32 10° ENE visible
26 Oct -0.7 05:40:43 10° SSE 05:42:02 12° SE 05:43:22 10° ESE visible
27 Oct -3.5 06:23:11 12° SW 06:26:07 64° SE 06:29:22 10° NE visible
28 Oct -2.2 05:34:09 30° SE 05:34:10 30° SE 05:37:06 10° ENE visible
29 Oct -3.5 06:17:37 36° W 06:18:30 48° NW 06:21:41 10° NE visible
